Weather History for KPVB - September, 2012

Change the Weather History Date:

Wednesday, September 19, 2012

  Actual Average (KDBQ) Record (KDBQ)
Temperature  
Mean Temperature 58 °F 61 °F  
Max Temperature 75 °F 71 °F 94 °F (1948)
Min Temperature 41 °F 50 °F 37 °F (1992)
Degree Days  
Heating Degree Days 7 6  
Month to date heating degree days 66  
Since 1 July heating degree days 93  
Cooling Degree Days 0 2  
Month to date cooling degree days 51  
Year to date cooling degree days 627  
Growing Degree Days 8 (Base 50)    
Moisture  
Dew Point 38 °F    
Average Humidity 49    
Maximum Humidity 71    
Minimum Humidity 29    
Precipitation  
Precipitation 0.00 in 0.12 in 2.34 in (1965)
Month to date precipitation 2.24  
Year to date precipitation 28.22  
Snow  
Snow 0.00 in 0.00 in - ()
Month to date snowfall 0.0  
Since 1 July snowfall 0.0  
Since 1 September snowfall 0.0  
Snow Depth -    
Sea Level Pressure  
Sea Level Pressure 29.87 in    
Wind  
Wind Speed 11 mph (South)    
Max Wind Speed 30 mph    
Max Gust Speed 39 mph    
Visibility 10 miles    
Events      
T = Trace of Precipitation, MM = Missing Value Source: NWS Daily Summary

Daily Weather History Graph

Daily Weather History Graph

Search for Another Location

Airport or City:

Trip Planner

Search our weather history database for the weather conditions in past years. The results will help you decide how hot, cold, wet, or windy it might be!

Date:

Astronomy

Sep. 19, 2012 Rise Set
Actual Time 6:46 AM CDT 7:03 PM CDT
Civil Twilight 6:18 AM CDT 7:31 PM CDT
Nautical Twilight 5:44 AM CDT 8:04 PM CDT
Astronomical Twilight 5:10 AM CDT 8:38 PM CDT
Moon 11:03 AM CDT (9/19) 9:05 PM CDT (9/19)
Length of Visible Light 13h 13m
Length of Day
12h 17m
Waxing Crescent, 17% of the Moon is Illuminated
Sep 19
Waxing Crescent
Sep 22
First Quarter
Sep 29
Full
Oct 8
Last Quarter
Oct 15
New

Hourly Weather History & Observations

Time (CDT) Temp. Windchill Dew Point Humidity Pressure Visibility Wind Dir Wind Speed Gust Speed Precip Events Conditions
12:15 AM 41.0 °F 37.1 °F 32.0 °F 70% 30.02 in 10.0 mi SE 5.8 mph - N/A   Clear
12:55 AM 41.0 °F 36.4 °F 32.0 °F 70% 30.01 in 10.0 mi SE 6.9 mph - N/A   Clear
1:15 AM 41.0 °F 37.1 °F 32.0 °F 70% 30.01 in 10.0 mi SE 5.8 mph - N/A   Clear
1:35 AM 41.0 °F 36.4 °F 32.0 °F 70% 30.01 in 10.0 mi SE 6.9 mph - N/A   Clear
1:55 AM 41.0 °F 37.1 °F 32.0 °F 70% 30.02 in 10.0 mi SE 5.8 mph - N/A   Clear
2:15 AM 41.0 °F 39.0 °F 32.0 °F 70% 30.01 in 10.0 mi SE 3.5 mph - N/A   Clear
2:35 AM 41.0 °F 38.0 °F 32.0 °F 70% 30.01 in 10.0 mi SE 4.6 mph - N/A   Scattered Clouds
2:55 AM 41.0 °F 37.1 °F 32.0 °F 70% 30.00 in 10.0 mi SE 5.8 mph - N/A   Clear
3:15 AM 41.0 °F 37.1 °F 32.0 °F 70% 30.00 in 10.0 mi SE 5.8 mph - N/A   Scattered Clouds
3:35 AM 41.0 °F 36.4 °F 32.0 °F 70% 30.01 in 10.0 mi SE 6.9 mph - N/A   Overcast
3:55 AM 41.0 °F 37.1 °F 32.0 °F 70% 30.00 in 10.0 mi SSE 5.8 mph - N/A   Overcast
4:15 AM 41.0 °F 37.1 °F 32.0 °F 70% 30.00 in 10.0 mi SSE 5.8 mph - N/A   Overcast
4:55 AM 41.0 °F 37.1 °F 32.0 °F 70% 30.00 in 10.0 mi SSE 5.8 mph - N/A   Overcast
5:15 AM 42.8 °F 39.3 °F 33.8 °F 70% 29.99 in 10.0 mi SE 5.8 mph - N/A   Overcast
5:35 AM 42.8 °F 39.3 °F 33.8 °F 70% 29.99 in 10.0 mi SE 5.8 mph - N/A   Overcast
5:55 AM 44.6 °F 40.7 °F 33.8 °F 66% 29.99 in 10.0 mi SE 6.9 mph - N/A   Overcast
6:15 AM 44.6 °F 40.2 °F 33.8 °F 66% 29.99 in 10.0 mi SSE 8.1 mph - N/A   Overcast
6:35 AM 44.6 °F 40.7 °F 35.6 °F 71% 29.99 in 10.0 mi SSE 6.9 mph - N/A   Overcast
6:55 AM 46.4 °F 41.9 °F 35.6 °F 66% 29.97 in 10.0 mi SSE 9.2 mph - N/A   Overcast
7:15 AM 46.4 °F 41.5 °F 35.6 °F 66% 29.97 in 10.0 mi SSE 10.4 mph - N/A   Overcast
7:35 AM 46.4 °F 41.5 °F 35.6 °F 66% 29.97 in 10.0 mi South 10.4 mph - N/A   Overcast
7:55 AM 50.0 °F - 35.6 °F 58% 29.96 in 10.0 mi South 10.4 mph - N/A   Mostly Cloudy
8:15 AM 51.8 °F - 35.6 °F 54% 29.95 in 10.0 mi South 12.7 mph - N/A   Mostly Cloudy
8:35 AM 51.8 °F - 35.6 °F 54% 29.95 in 10.0 mi South 15.0 mph - N/A   Overcast
8:55 AM 53.6 °F - 35.6 °F 51% 29.94 in 10.0 mi South 13.8 mph - N/A   Overcast
9:15 AM 55.4 °F - 35.6 °F 47% 29.93 in 10.0 mi South 17.3 mph - N/A   Scattered Clouds
9:55 AM 59.0 °F - 35.6 °F 42% 29.92 in 10.0 mi South 17.3 mph 21.9 mph N/A   Clear
10:15 AM 59.0 °F - 35.6 °F 42% 29.92 in 10.0 mi South 17.3 mph 26.5 mph N/A   Scattered Clouds
10:35 AM 60.8 °F - 35.6 °F 39% 29.91 in 7.0 mi South 15.0 mph 20.7 mph N/A   Scattered Clouds
11:15 AM 64.4 °F - 37.4 °F 37% 29.89 in 7.0 mi South 25.3 mph 32.2 mph N/A   Clear
11:35 AM 68.0 °F - 37.4 °F 33% 29.88 in 10.0 mi South 23.0 mph 29.9 mph N/A   Clear
11:55 AM 68.0 °F - 37.4 °F 33% 29.86 in 10.0 mi South 24.2 mph 32.2 mph N/A   Clear
12:15 PM 69.8 °F - 37.4 °F 31% 29.86 in 10.0 mi SSW 28.8 mph 34.5 mph N/A   Clear
12:35 PM 71.6 °F - 39.2 °F 31% 29.85 in 7.0 mi South 26.5 mph 34.5 mph N/A   Clear
12:55 PM 71.6 °F - 39.2 °F 31% 29.84 in 10.0 mi South 24.2 mph 32.2 mph N/A   Clear
1:15 PM 71.6 °F - 39.2 °F 31% 29.83 in 10.0 mi SSW 23.0 mph 31.1 mph N/A   Clear
1:35 PM 71.6 °F - 39.2 °F 31% 29.81 in 10.0 mi SSW 25.3 mph 36.8 mph N/A   Clear
1:55 PM 73.4 °F - 41.0 °F 31% 29.79 in 10.0 mi South 25.3 mph 34.5 mph N/A   Clear
2:15 PM 73.4 °F - 41.0 °F 31% 29.78 in 10.0 mi SSW 26.5 mph 39.1 mph N/A   Clear
2:35 PM 73.4 °F - 41.0 °F 31% 29.78 in 10.0 mi SSW 29.9 mph 35.7 mph N/A   Clear
2:55 PM 73.4 °F - 41.0 °F 31% 29.77 in 10.0 mi South 28.8 mph 34.5 mph N/A   Clear
3:15 PM 75.2 °F - 41.0 °F 29% 29.75 in 10.0 mi South 27.6 mph 34.5 mph N/A   Clear
3:35 PM 75.2 °F - 41.0 °F 29% 29.73 in 10.0 mi SSW 26.5 mph 39.1 mph N/A   Clear
3:55 PM 75.2 °F - 41.0 °F 29% 29.73 in 10.0 mi SSW 28.8 mph 38.0 mph N/A   Clear
4:15 PM 73.4 °F - 41.0 °F 31% 29.72 in 10.0 mi SSW 24.2 mph 32.2 mph N/A   Clear
4:35 PM 73.4 °F - 41.0 °F 31% 29.72 in 10.0 mi SSW 27.6 mph 33.4 mph N/A   Scattered Clouds
4:55 PM 73.4 °F - 42.8 °F 33% 29.72 in 10.0 mi SSW 24.2 mph 29.9 mph N/A   Scattered Clouds
5:15 PM 73.4 °F - 42.8 °F 33% 29.73 in 10.0 mi SSW 13.8 mph 23.0 mph N/A   Clear
5:35 PM 73.4 °F - 42.8 °F 33% 29.72 in 10.0 mi SSW 17.3 mph 27.6 mph N/A   Scattered Clouds
5:55 PM 73.4 °F - 42.8 °F 33% 29.72 in 10.0 mi SSW 15.0 mph 24.2 mph N/A   Scattered Clouds
6:15 PM 73.4 °F - 42.8 °F 33% 29.71 in 10.0 mi South 18.4 mph - N/A   Mostly Cloudy
6:35 PM 71.6 °F - 44.6 °F 38% 29.71 in 10.0 mi SSW 18.4 mph 24.2 mph N/A   Mostly Cloudy
6:55 PM 69.8 °F - 48.2 °F 46% 29.72 in 10.0 mi WSW 6.9 mph 10.4 mph N/A   Mostly Cloudy
7:15 PM 69.8 °F - 48.2 °F 46% 29.72 in 10.0 mi SW 9.2 mph 19.6 mph N/A   Overcast
7:35 PM 69.8 °F - 48.2 °F 46% 29.74 in 10.0 mi WSW 15.0 mph 24.2 mph N/A   Overcast
8:35 PM 66.2 °F - 46.4 °F 49% 29.78 in 10.0 mi West 8.1 mph - N/A   Overcast
8:55 PM 62.6 °F - 42.8 °F 48% 29.80 in 10.0 mi West 6.9 mph - N/A   Mostly Cloudy
9:15 PM 62.6 °F - 41.0 °F 45% 29.81 in 10.0 mi WNW 6.9 mph - N/A   Scattered Clouds
9:35 PM 62.6 °F - 39.2 °F 42% 29.82 in 10.0 mi WNW 8.1 mph - N/A   Clear
9:55 PM 60.8 °F - 39.2 °F 45% 29.83 in 10.0 mi West 5.8 mph - N/A   Clear
10:15 PM 60.8 °F - 37.4 °F 42% 29.84 in 10.0 mi West 5.8 mph - N/A   Clear
10:35 PM 60.8 °F - 37.4 °F 42% 29.85 in 10.0 mi WNW 8.1 mph - N/A   Clear
10:55 PM 59.0 °F - 37.4 °F 45% 29.85 in 10.0 mi West 5.8 mph - N/A   Clear
11:35 PM 59.0 °F - 37.4 °F 45% 29.86 in 10.0 mi NW 12.7 mph - N/A   Clear
11:55 PM 59.0 °F - 37.4 °F 45% 29.87 in 10.0 mi NW 10.4 mph - N/A   Clear